This is the latest recevied weather packets stored in our database for station/object XQ6AK-15. If no packets are shown the sender has not sent any weather packets the latest 10 day(s).
| Time | Temp. | Humidity | Pressure | Rain* | Wind** | Luminosity | Snow |
|---|---|---|---|---|---|---|---|
| 1787658169 | 10° C | 99% | 1003.3 hPa | 3.05 mm | - | 0 W/m² | - |
| 1787657864 | 10° C | 99% | 1003.4 hPa | 3.05 mm | - | 0 W/m² | - |
| 1787657559 | 10° C | 99% | 1003.4 hPa | 3.05 mm | - | 0 W/m² | - |
| 1787657258 | 10° C | 99% | 1003.6 hPa | 3.05 mm | - | 0 W/m² | - |
| 1787656954 | 10.56° C | 99% | 1003.6 hPa | 3.05 mm | - | 0 W/m² | - |
| 1787656651 | 10.56° C | 99% | 1003.9 hPa | 4.32 mm | - | 0 W/m² | - |
| 1787656346 | 10.56° C | 99% | 1003.7 hPa | 1.27 mm | - | 0 W/m² | - |
| 1787656041 | 10.56° C | 99% | 1003.7 hPa | 1.78 mm | - | 0 W/m² | - |
| 1787655738 | 10.56° C | 99% | 1003.7 hPa | 3.56 mm | - | 0 W/m² | - |
| 1787655436 | 10.56° C | 99% | 1004 hPa | 3.05 mm | - | 0 W/m² | - |
| 1787655135 | 10.56° C | 99% | 1004.1 hPa | 3.05 mm | - | 0 W/m² | - |
| 1787654831 | 10.56° C | 99% | 1003.9 hPa | 1.78 mm | - | 0 W/m² | - |
| 1787654527 | 10.56° C | 99% | 1003.8 hPa | 1.27 mm | - | 0 W/m² | - |
| 1787654222 | 10.56° C | 99% | 1003.9 hPa | 0 mm | - | 0 W/m² | - |
| 1787653918 | 10.56° C | 99% | 1004.1 hPa | 1.78 mm | - | 0 W/m² | - |
| 1787653613 | 10.56° C | 99% | 1004 hPa | 1.78 mm | - | 0 W/m² | - |
| 1787653308 | 10.56° C | 99% | 1004.1 hPa | 1.27 mm | - | 0 W/m² | - |
| 1787653003 | 10.56° C | 99% | 1004.2 hPa | 3.05 mm | - | 0 W/m² | - |
| 1787652698 | 10.56° C | 99% | 1004.1 hPa | 1.78 mm | - | 0 W/m² | - |
| 1787652393 | 10.56° C | 99% | 1004.4 hPa | 0 mm | - | 0 W/m² | - |
| 1787652088 | 10.56° C | 99% | 1004.5 hPa | 0 mm | - | 0 W/m² | - |
| 1787651786 | 10.56° C | 99% | 1004.4 hPa | 0 mm | - | 0 W/m² | - |
| 1787651481 | 10.56° C | 98% | 1004.5 hPa | 0 mm | - | 0 W/m² | - |
| 1787651176 | 10.56° C | 99% | 1004.7 hPa | 0 mm | - | 0 W/m² | - |
| 1787650873 | 10.56° C | 99% | 1004.7 hPa | 0 mm | - | 0 W/m² | - |
* Rain latest hour (hover to see other rain measurements)
** Current wind speed in m/s (hover to see current wind gust speed)